When you browse on this site, cookies collect data to enhance your experience and personalize the content and advertising you see.
Visit our Privacy Policy to learn more. By continuing to use the site, you agree to this use of cookies and data.
  • In Österreich
  • Länderverzeichnis
  • Für 7 Tage
  • Wassertemperatur
  • Wetterkarte
  • News
  • Widgets
  • user-avatar
    Anmelden

    Stündliche Wetter Thompson

    Heute, 30 Mai, Samstag

    Zeit Temperatur Niederschläge Wind Luftdruck Luftfeuchtigkeit
    00:00 0°C° 0 mm 1 m/S 749 mmHg 68%
    01:00 0°C° 0 mm 1 m/S 749 mmHg 71%
    02:00 -1°C° 0 mm 1 m/S 750 mmHg 75%
    03:00 0°C° 0 mm 1 m/S 749 mmHg 71%
    04:00 +1°C° 0 mm 1 m/S 749 mmHg 68%
    05:00 +2°C° 0 mm 1 m/S 749 mmHg 64%
    06:00 +4°C° 0 mm 1 m/S 749 mmHg 54%
    07:00 +6°C° 0 mm 2 m/S 749 mmHg 43%
    08:00 +9°C° 0 mm 2 m/S 749 mmHg 33%
    09:00 +11°C° 0 mm 3 m/S 748 mmHg 29%
    10:00 +13°C° 0 mm 3 m/S 748 mmHg 26%
    11:00 +16°C° 0 mm 3 m/S 747 mmHg 22%
    12:00 +17°C° 0 mm 3 m/S 746 mmHg 21%
    13:00 +18°C° 0 mm 4 m/S 746 mmHg 20%
    14:00 +19°C° 0 mm 4 m/S 746 mmHg 20%
    15:00 +19°C° 0 mm 4 m/S 745 mmHg 19%
    16:00 +19°C° 0 mm 4 m/S 745 mmHg 19%
    17:00 +19°C° 0 mm 4 m/S 744 mmHg 19%
    18:00 +17°C° 0 mm 3 m/S 744 mmHg 26%
    19:00 +13°C° 0 mm 3 m/S 744 mmHg 32%
    20:00 +10°C° 0 mm 2 m/S 745 mmHg 39%
    21:00 +8°C° 0 mm 2 m/S 745 mmHg 45%
    22:00 +6°C° 0 mm 2 m/S 745 mmHg 51%
    23:00 +5°C° 0 mm 2 m/S 745 mmHg 56%

    Morgen, 31 Mai, Sonntag

    Zeit Temperatur Niederschläge Wind Luftdruck Luftfeuchtigkeit
    00:00 +5°C° 0 mm 1 m/S 745 mmHg 60%
    01:00 +4°C° 0 mm 1 m/S 745 mmHg 64%
    02:00 +3°C° 0 mm 1 m/S 746 mmHg 68%
    03:00 +4°C° 0 mm 1 m/S 746 mmHg 64%
    04:00 +5°C° 0 mm 1 m/S 746 mmHg 60%
    05:00 +6°C° 0 mm 1 m/S 746 mmHg 56%
    06:00 +9°C° 0 mm 1 m/S 746 mmHg 47%
    07:00 +13°C° 0 mm 1 m/S 746 mmHg 38%
    08:00 +16°C° 0 mm 1 m/S 745 mmHg 29%
    09:00 +19°C° 0 mm 1 m/S 745 mmHg 26%
    10:00 +20°C° 0 mm 2 m/S 744 mmHg 22%
    11:00 +23°C° 0 mm 2 m/S 743 mmHg 18%
    12:00 +23°C° 0 mm 2 m/S 743 mmHg 18%
    13:00 +24°C° 0 mm 2 m/S 743 mmHg 17%
    14:00 +25°C° 0 mm 2 m/S 742 mmHg 17%
    15:00 +24°C° 0 mm 3 m/S 742 mmHg 18%
    16:00 +24°C° 0 mm 3 m/S 741 mmHg 19%
    17:00 +24°C° 0 mm 3 m/S 740 mmHg 20%
    18:00 +21°C° 0 mm 3 m/S 740 mmHg 23%
    19:00 +19°C° 0 mm 4 m/S 740 mmHg 26%
    20:00 +17°C° 0 mm 4 m/S 740 mmHg 30%
    21:00 +17°C° 0 mm 4 m/S 739 mmHg 31%
    22:00 +15°C° 0 mm 4 m/S 739 mmHg 32%
    23:00 +14°C° 0 mm 4 m/S 738 mmHg 33%

    übermorgen, 1 Juni, Montag

    Zeit Temperatur Niederschläge Wind Luftdruck Luftfeuchtigkeit
    00:00 +14°C° 0 mm 5 m/S 738 mmHg 33%
    01:00 +13°C° 0 mm 5 m/S 737 mmHg 33%
    02:00 +13°C° 0 mm 5 m/S 737 mmHg 33%
    03:00 +10°C° 0.9 mm 5 m/S 736 mmHg 48%
    04:00 +9°C° 0.9 mm 5 m/S 736 mmHg 63%
    05:00 +7°C° 0.9 mm 5 m/S 735 mmHg 78%
    06:00 +7°C° 0.9 mm 5 m/S 735 mmHg 81%
    07:00 +7°C° 0.9 mm 6 m/S 734 mmHg 84%
    08:00 +7°C° 0.9 mm 6 m/S 734 mmHg 87%
    09:00 +7°C° 1 mm 6 m/S 733 mmHg 87%
    10:00 +7°C° 1 mm 6 m/S 733 mmHg 88%
    11:00 +7°C° 1 mm 6 m/S 732 mmHg 88%
    12:00 +7°C° 0.4 mm 6 m/S 732 mmHg 88%
    13:00 +7°C° 0.4 mm 6 m/S 732 mmHg 88%
    14:00 +6°C° 0.4 mm 7 m/S 732 mmHg 88%
    15:00 +7°C° 0.4 mm 6 m/S 731 mmHg 89%
    16:00 +7°C° 0.4 mm 6 m/S 731 mmHg 90%
    17:00 +7°C° 0.4 mm 6 m/S 731 mmHg 91%
    18:00 +7°C° 1.7 mm 5 m/S 731 mmHg 92%
    19:00 +7°C° 1.7 mm 5 m/S 732 mmHg 94%
    20:00 +7°C° 1.7 mm 4 m/S 732 mmHg 95%
    21:00 +7°C° 1 mm 4 m/S 732 mmHg 95%
    22:00 +7°C° 1 mm 4 m/S 733 mmHg 95%
    23:00 +7°C° 1 mm 4 m/S 733 mmHg 94%

    2 Juni, Dienstag

    Zeit Temperatur Niederschläge Wind Luftdruck Luftfeuchtigkeit
    00:00 +6°C° 0 mm 4 m/S 734 mmHg 94%
    01:00 +6°C° 0 mm 4 m/S 735 mmHg 94%
    02:00 +5°C° 0 mm 4 m/S 735 mmHg 94%
    03:00 +5°C° 0 mm 4 m/S 736 mmHg 93%
    04:00 +4°C° 0 mm 4 m/S 736 mmHg 93%
    05:00 +3°C° 0 mm 3 m/S 737 mmHg 93%
    06:00 +3°C° 0 mm 3 m/S 737 mmHg 93%
    07:00 +3°C° 0 mm 3 m/S 738 mmHg 93%
    08:00 +3°C° 0 mm 3 m/S 738 mmHg 92%
    09:00 +3°C° 0 mm 3 m/S 739 mmHg 92%
    10:00 +3°C° 0 mm 3 m/S 739 mmHg 92%
    11:00 +3°C° 0 mm 3 m/S 739 mmHg 91%
    12:00 +5°C° 0.2 mm 2 m/S 739 mmHg 92%
    13:00 +5°C° 0.2 mm 2 m/S 739 mmHg 94%
    14:00 +5°C° 0.2 mm 2 m/S 739 mmHg 95%
    15:00 +6°C° 0.1 mm 1 m/S 739 mmHg 95%
    16:00 +7°C° 0.1 mm 1 m/S 739 mmHg 94%
    17:00 +7°C° 0.1 mm 1 m/S 739 mmHg 94%
    18:00 +7°C° 0 mm 1 m/S 739 mmHg 95%
    19:00 +7°C° 0 mm 1 m/S 739 mmHg 97%
    20:00 +7°C° 0 mm 1 m/S 739 mmHg 98%
    21:00 +7°C° 0.1 mm 1 m/S 739 mmHg 98%
    22:00 +7°C° 0.1 mm 1 m/S 738 mmHg 98%
    23:00 +7°C° 0.1 mm 1 m/S 738 mmHg 98%

    3 Juni, Mittwoch

    Zeit Temperatur Niederschläge Wind Luftdruck Luftfeuchtigkeit
    00:00 +7°C° 0 mm 1 m/S 738 mmHg 98%
    01:00 +6°C° 0 mm 1 m/S 738 mmHg 98%
    02:00 +6°C° 0 mm 1 m/S 738 mmHg 98%
    03:00 +7°C° 0 mm 1 m/S 739 mmHg 96%
    04:00 +8°C° 0 mm 1 m/S 739 mmHg 94%
    05:00 +9°C° 0 mm 1 m/S 739 mmHg 92%
    06:00 +12°C° 0 mm 1 m/S 739 mmHg 82%
    07:00 +14°C° 0 mm 2 m/S 739 mmHg 72%
    08:00 +17°C° 0 mm 2 m/S 739 mmHg 62%
    09:00 +19°C° 0 mm 2 m/S 739 mmHg 51%
    10:00 +23°C° 0 mm 2 m/S 739 mmHg 39%
    11:00 +25°C° 0 mm 3 m/S 739 mmHg 28%
    12:00 +25°C° 0 mm 2 m/S 739 mmHg 28%
    13:00 +25°C° 0 mm 1 m/S 738 mmHg 27%
    14:00 +25°C° 0 mm 1 m/S 738 mmHg 27%
    15:00 +25°C° 0 mm 1 m/S 738 mmHg 27%
    16:00 +25°C° 0 mm 1 m/S 738 mmHg 28%
    17:00 +25°C° 0 mm 1 m/S 738 mmHg 28%
    18:00 +23°C° 0 mm 2 m/S 738 mmHg 34%
    19:00 +20°C° 0 mm 2 m/S 738 mmHg 40%
    20:00 +18°C° 0 mm 3 m/S 738 mmHg 45%
    21:00 +17°C° 0 mm 3 m/S 738 mmHg 49%
    22:00 +16°C° 0 mm 3 m/S 738 mmHg 53%
    23:00 +13°C° 0 mm 3 m/S 738 mmHg 57%

    4 Juni, Donnerstag

    Zeit Temperatur Niederschläge Wind Luftdruck Luftfeuchtigkeit
    00:00 +12°C° 0 mm 3 m/S 738 mmHg 59%
    01:00 +11°C° 0 mm 3 m/S 738 mmHg 61%
    02:00 +10°C° 0 mm 3 m/S 738 mmHg 63%
    03:00 +11°C° 0 mm 3 m/S 737 mmHg 60%
    04:00 +12°C° 0 mm 3 m/S 737 mmHg 57%
    05:00 +13°C° 0 mm 3 m/S 737 mmHg 54%
    06:00 +17°C° 0 mm 4 m/S 737 mmHg 47%
    07:00 +19°C° 0 mm 5 m/S 736 mmHg 40%
    08:00 +22°C° 0 mm 5 m/S 736 mmHg 33%
    09:00 +23°C° 0.2 mm 6 m/S 735 mmHg 33%
    10:00 +26°C° 0.2 mm 6 m/S 735 mmHg 32%
    11:00 +28°C° 0.2 mm 7 m/S 734 mmHg 32%
    12:00 +28°C° 0 mm 6 m/S 734 mmHg 30%
    13:00 +29°C° 0 mm 6 m/S 733 mmHg 29%
    14:00 +30°C° 0 mm 6 m/S 732 mmHg 28%
    15:00 +27°C° 1.3 mm 5 m/S 732 mmHg 45%
    16:00 +22°C° 1.3 mm 4 m/S 732 mmHg 62%
    17:00 +19°C° 1.3 mm 3 m/S 731 mmHg 79%
    18:00 +18°C° 0.5 mm 3 m/S 732 mmHg 83%
    19:00 +17°C° 0.5 mm 2 m/S 732 mmHg 87%
    20:00 +16°C° 0.5 mm 1 m/S 732 mmHg 91%
    21:00 +15°C° 0.5 mm 1 m/S 732 mmHg 92%
    22:00 +15°C° 0.5 mm 2 m/S 732 mmHg 94%
    23:00 +14°C° 0.5 mm 2 m/S 732 mmHg 95%
    Mehr zeigen